K2MIT Weather Reports


Display with metric or nautical units.
time (UTC)temp
F
wind
direction
speed
MPH
gust
MPH
rain 1hr
in
rain 24hr
in
rain mn
in
humidity
%
barometer
mb
20260510224529 67 217 0.0 5.0 0.00 0.09 0.00 57 1013.0
20260510223033 67 262 2.0 7.0 0.00 0.09 0.00 55 1013.3
20260510221532 67 225 3.0 9.0 0.00 0.09 0.00 55 1013.1
20260510220035 67 295 3.0 12.0 0.00 0.09 0.00 56 1012.9
20260510214538 66 262 5.0 11.0 0.00 0.15 0.00 60 1012.9
20260510213029 65 278 2.0 7.0 0.00 0.15 0.00 73 1012.9
20260510211535 65 0 0.0 2.0 0.00 0.15 0.00 80 1012.8
20260510210034 66 184 0.0 2.0 0.00 0.15 0.00 76 1012.6
20260510204538 67 0 0.0 3.0 0.00 0.19 0.00 73 1012.4
20260510203032 69 0 0.0 2.0 0.00 0.19 0.00 68 1012.3
20260510201534 70 90 0.0 2.0 0.00 0.19 0.00 65 1012.2
20260510200034 70 119 1.0 5.0 0.00 0.19 0.00 64 1012.5
20260510194535 69 98 1.0 6.0 0.00 0.22 0.00 64 1012.5
20260510193030 69 153 1.0 5.0 0.00 0.22 0.00 66 1012.4
20260510191530 68 113 2.0 6.0 0.00 0.22 0.00 68 1012.8
20260510190035 69 155 1.0 6.0 0.00 0.22 0.00 70 1012.7
20260510184535 68 141 2.0 6.0 0.00 0.35 0.00 71 1013.0
20260510183037 68 83 2.0 6.0 0.00 0.35 0.00 69 1012.9
20260510181540 70 113 1.0 5.0 0.00 0.35 0.00 67 1012.8
20260510180041 70 167 1.0 4.0 0.00 0.35 0.00 68 1012.8
20260510174532 69 188 1.0 6.0 0.00 0.35 0.00 68 1012.8
20260510173034 67 289 2.0 3.0 0.00 0.35 0.00 70 1012.9
20260510171538 66 71 2.0 4.0 0.00 0.35 0.00 71 1013.0
20260510170032 67 76 2.0 4.0 0.00 0.35 0.00 71 1013.0
20260510164532 65 0 0.0 4.0 0.00 0.35 0.00 76 1013.2
20260510163030 62 227 1.0 6.0 0.00 0.35 0.00 79 1013.3
20260510161534 61 165 1.0 4.0 0.00 0.35 0.00 79 1013.1
20260510160038 61 306 2.0 5.0 0.00 0.35 0.00 83 1013.4
20260510154531 58 205 1.0 3.0 0.00 0.35 0.00 88 1013.5
20260510153032 56 213 1.0 3.0 0.00 0.35 0.00 89 1013.6
20260510151538 55 0 0.0 3.0 0.00 0.35 0.00 91 1013.7
20260510150037 54 196 0.0 2.0 0.00 0.35 0.00 91 1013.6
20260510144537 54 0 0.0 3.0 0.00 0.35 0.00 91 1013.5
20260510143037 54 0 1.0 4.0 0.00 0.35 0.00 91 1013.5
20260510141533 54 0 0.0 2.0 0.00 0.35 0.00 91 1013.3
20260510140030 53 0 0.0 2.0 0.00 0.35 0.00 91 1013.2
20260510134533 52 0 0.0 3.0 0.00 0.35 0.00 92 1013.2
20260510133031 52 96 1.0 4.0 0.00 0.35 0.00 92 1013.2
20260510131534 52 161 1.0 2.0 0.00 0.35 0.00 92 1012.9
20260510130034 52 0 0.0 2.0 0.00 0.35 0.00 92 1013.0
20260510124532 52 129 0.0 2.0 0.00 0.35 0.00 92 1013.1
20260510123031 52 0 0.0 2.0 0.00 0.35 0.00 92 1012.7
20260510121529 52 168 0.0 3.0 0.00 0.35 0.00 92 1012.5
20260510120033 51 102 0.0 3.0 0.00 0.35 0.00 92 1012.4
20260510114537 51 0 1.0 3.0 0.00 0.35 0.00 92 1012.4
20260510113031 51 0 1.0 4.0 0.00 0.35 0.00 92 1012.2
20260510111537 51 108 2.0 7.0 0.00 0.35 0.00 92 1011.9
20260510110032 51 108 1.0 3.0 0.00 0.35 0.00 92 1011.9
20260510104530 51 117 1.0 4.0 0.00 0.35 0.00 92 1012.0
20260510103038 51 0 0.0 3.0 0.00 0.35 0.00 92 1011.9
20260510101531 51 126 0.0 2.0 0.00 0.35 0.00 92 1011.9
20260510100033 50 150 1.0 5.0 0.00 0.35 0.00 92 1011.9
20260510094542 50 102 1.0 3.0 0.00 0.35 0.00 92 1012.0
20260510093036 50 0 0.0 0.0 0.00 0.35 0.00 92 1012.3
20260510091540 50 0 0.0 0.0 0.00 0.35 0.00 92 1012.3
20260510090033 50 58 1.0 2.0 0.00 0.35 0.00 92 1012.2
20260510084534 51 0 0.0 3.0 0.00 0.35 0.00 92 1012.1
20260510083048 51 53 1.0 3.0 0.00 0.35 0.00 92 1012.0
20260510081532 51 346 1.0 2.0 0.00 0.35 0.00 92 1012.1
20260510080034 51 90 1.0 2.0 0.00 0.35 0.00 91 1011.3
20260510074532 51 147 1.0 2.0 0.00 0.35 0.00 91 1011.3
20260510073035 51 0 0.0 2.0 0.00 0.35 0.00 91 1011.3
20260510071536 51 95 0.0 1.0 0.00 0.35 0.00 91 1011.5
20260510070032 51 0 0.0 0.0 0.00 0.35 0.00 91 1011.6
20260510064534 51 0 0.0 0.0 0.00 0.35 0.00 91 1011.7
20260510063035 51 62 0.0 0.0 0.00 0.35 0.00 91 1012.1
20260510061534 51 0 0.0 3.0 0.00 0.35 0.00 91 1011.1
20260510060040 51 46 1.0 2.0 0.00 0.35 0.00 91 1011.1
20260510054538 51 0 1.0 4.0 0.00 0.35 0.00 91 1011.2
20260510053035 52 0 0.0 2.0 0.00 0.35 0.00 91 1011.2
20260510051533 52 0 0.0 2.0 0.00 0.35 0.00 91 1011.4
20260510050034 52 0 0.0 0.0 0.00 0.35 0.00 91 1011.4
20260510044533 52 0 0.0 2.0 0.00 0.35 0.00 91 1011.4
20260510043035 52 109 0.0 2.0 0.00 0.35 0.00 91 1011.3
20260510041540 52 0 0.0 1.0 0.00 0.35 0.00 91 1011.4
20260510040030 52 0 0.0 2.0 0.00 0.35 0.00 91 1011.2
20260510034532 52 0 0.0 2.0 0.00 0.35 0.35 91 1011.1
20260510033034 51 0 0.0 0.0 0.00 0.35 0.35 91 1010.9
20260510031533 50 0 0.0 0.0 0.00 0.35 0.35 91 1011.0
20260510030048 50 0 0.0 0.0 0.00 0.35 0.35 91 1011.0
20260510024532 50 0 0.0 0.0 0.00 0.35 0.35 91 1010.9
20260510023034 50 0 0.0 0.0 0.00 0.35 0.35 91 1011.1
20260510021533 51 0 0.0 0.0 0.00 0.35 0.35 91 1011.2
20260510020031 51 0 0.0 0.0 0.00 0.35 0.35 90 1011.0
20260510014535 51 0 0.0 0.0 0.00 0.35 0.35 90 1011.1
20260510013031 52 0 0.0 0.0 0.00 0.35 0.35 90 1010.9
20260510011538 52 0 0.0 0.0 0.00 0.35 0.35 90 1010.6
20260510010034 53 0 0.0 0.0 0.00 0.35 0.35 90 1010.5
20260510004535 53 0 0.0 0.0 0.00 0.35 0.35 90 1010.6
20260510003038 53 0 0.0 0.0 0.00 0.35 0.35 90 1010.4
20260510001534 54 0 0.0 2.0 0.00 0.35 0.35 90 1010.3
20260510000034 54 90 1.0 4.0 0.00 0.35 0.35 90 1010.3
20260509234540 54 79 2.0 4.0 0.00 0.35 0.35 90 1010.3
20260509233035 54 94 2.0 4.0 0.00 0.35 0.35 90 1010.2
20260509231540 55 0 0.0 0.0 0.04 0.35 0.35 90 1010.6
20260509230032 55 0 0.0 2.0 0.09 0.35 0.35 90 1010.6